Location: Hemaruka
(51.7801°N, 111.0917°W)
Time: 08:49:46
(UTC+00:00)

Envisat - Visible Passes

Search period start: 28 May 2023 00:00
Search period end: 07 June 2023 00:00
Orbit: 763 x 765 km, 98.2° (Epoch: 27 May)

Date Brightness Start Highest point End Pass type
(mag) Time Alt. Az. Time Alt. Az. Time Alt. Az.
30 May 5.5 10:00:23 10° NE 10:03:29 16° E 10:06:35 10° SE visible
01 Jun 5.1 10:24:20 10° NE 10:28:31 25° E 10:32:41 10° SSE visible
02 Jun 5.7 09:48:40 10° ENE 09:50:53 13° E 09:53:05 10° ESE visible
04 Jun 5.4 10:12:12 10° NE 10:15:57 20° E 10:19:41 10° SE visible
